Regional Weather Roundup
Issued by NWS Newport/Morehead, NC

Current Version | Previous Version | Graphics & Text | Print | Product List | Glossary Off
Versions: 1 2 3 4 5 6 7 8 9 10 11 12 13 14 15 16 17 18 19 20 21 22 23 24 25 26 27 28 29 30 31 32 33 34 35 36 37 38 39 40 41 42 43 44 45 46 47 48 49 50

000
ASUS42 KMHX 060124
RWRMHX
WEATHER ROUNDUP FOR EASTERN NORTH CAROLINA
NATIONAL WEATHER SERVICE NEWPORT/MOREHEAD CITY NC
800 PM EST MON DEC 05 2016

NOTE: "FAIR" INDICATES FEW OR NO CLOUDS BELOW 12,000 FEET
WITH NO SIGNIFICANT WEATHER AND/OR OBSTRUCTIONS TO VISIBILITY

NCZ015>017-031-032-045>047-102-103-060200-
NORTH COAST

CITY           SKY/WX    TMP DP  RH WIND       PRES   REMARKS
EDENTON        PTCLDY    49  42  78 CALM      30.09R
ELIZABETH CITY CLOUDY    48  42  80 N13       30.06F
KITTY HAWK     MOCLDY    51  47  87 N6        30.04F
MANTEO         MOCLDY    50  46  83 NE10      30.06S

$$

NCZ045>047-081-094-103-104-060200-
CENTRAL COAST

CITY           SKY/WX    TMP DP  RH WIND       PRES   REMARKS
FRISCO         CLOUDY    52  47  83 NE7       30.05R

$$

NCZ095-097-098-100-101-060200-
SOUTHERN COAST

CITY           SKY/WX    TMP DP  RH WIND       PRES   REMARKS
BEAUFORT       CLOUDY    52  45  77 E7        30.06R
CEDAR ISLAND   NOT AVBL
JACKSONVILLE   CLOUDY    54  50  86 E6        30.06R
PINEY ISLAND   PTCLDY   N/A N/A N/A NE13      30.05R
WILMINGTON     CLOUDY    54  50  86 NE5       30.05R


$$

NCZ011>013-027>030-043-044-078>080-089-090>093-098-060200-
COASTAL PLAIN

CITY           SKY/WX    TMP DP  RH WIND       PRES   REMARKS
AHOSKIE        CLOUDY    45  43  93 CALM      30.09R
CLINTON        CLOUDY    54  48  78 CALM      30.06S
ELIZABETHTOWN  CLOUDY    55  47  76 CALM      30.05R
GOLDSBORO      CLOUDY    53  49  87 NE5       30.06R
GREENVILLE     MOCLDY    50  46  87 CALM      30.09R
HAVELOCK       CLOUDY    53  44  71 NE10      30.06R
KENANSVILLE    CLOUDY    52  46  82 E5        30.07R
KINSTON        CLOUDY    52  46  82 NE3       30.09R
NEW BERN       CLOUDY    51  46  83 NE9       30.07R
RICHLANDS      NOT AVBL
ROCKY MOUNT    CLOUDY    50  46  86 CALM      30.08R
WASHINGTON     CLOUDY    48  43  82 CALM      30.08R
WHITEVILLE     NOT AVBL

$$

AMZ130-135-150-152-154-156-158-170-250-252-270-ANZ085-086-088-633-658-670-060200-
MARINE OBSERVATIONS

STATION/POSITION TIME  TEMP    WIND        PRES    WAVE   SWELL
                       AIR SEA DIR/SP/G            HT/PER HT/PER
                 (UTC) (F)     (DEG/KT/KT) (MB)    (FT/S) (FT/S)
CHESAPEAKE LIGHT NOT AVBL
64 E VA BEACH    0050   54 60   10/ 17/ 21 1017.3    6/ 5   2/ 8
DUCK             0054   52 54   20/ 14/ 17 1017.1
2 E DUCK         NOT AVBL
OREGON INLET     0054   52 56   10/ 12/ 17 1017.4
13E OREGON INLT  NOT AVBL
HATTERAS CG      0054   53 60   30/ 10/ 14 1017.3
DIAMOND BUOY     0050   57 76   20/ 16/ 21 1016.9    5/ 8   3/ 8
CAPE LOOKOUT     0100   54      40/ 17/ 20 1017.3
BEAUFORT LAB     0054   52 56   50/  5/  8 1016.7
30 SE NEW RVR IN 0108   57 70   60/ 16/ 21 1016.3
30 SE NEW RVR IN NOT AVBL
27 SE WRIGHTSVLE 0008   61 67   80/ 16/ 23 1015.9
5 SE WRIGHTSVLE  0108   57 62   70/ 12/ 21 1016.6
225 S CAPE HAT   0050   71 74  230/ 16/ 19 1015.6    6/ 6   2/10
41 SE CHARLESTON 0050   68 73   80/ 16/ 17 1013.6    4/ 6   2/11

$$




USA.gov is the U.S. government's official web portal to all federal, state and local government web resources and services.